KF5CME Weather Reports


time (UTC)temp
F
wind
direction
speed
knots
gust
knots
rain 1hr
in
rain 24hr
in
rain mn
in
humidity
%
barometer
mb
20260509112019 69 0 0.0 0.9 0.00 0.00 0.00 93 1009.3
20260509111537 69 0 0.0 0.9 0.00 0.00 0.00 93 1009.3
20260509111020 69 0 0.0 0.9 0.00 0.00 0.00 93 1009.2
20260509110523 69 0 0.0 0.9 0.00 0.00 0.00 93 1009.1
20260509110045 69 0 0.0 0.9 0.00 0.00 0.00 92 1009.0
20260509105521 69 0 0.0 0.9 0.00 0.00 0.00 92 1008.9
20260509105022 69 0 0.0 0.9 0.00 0.00 0.00 92 1009.0
20260509104549 69 0 0.0 0.9 0.00 0.00 0.00 92 1009.0
20260509104020 69 0 0.0 0.9 0.00 0.00 0.00 92 1009.1
20260509103519 69 0 0.0 0.0 0.00 0.00 0.00 92 1009.1
20260509103038 69 0 0.0 0.0 0.00 0.00 0.00 92 1009.1
20260509102525 69 0 0.0 0.0 0.00 0.00 0.00 92 1008.9
20260509102021 68 0 0.0 0.9 0.00 0.00 0.00 92 1008.9
20260509101538 68 0 0.0 0.9 0.00 0.00 0.00 92 1008.8
20260509101023 68 0 0.0 0.9 0.00 0.00 0.00 92 1008.8
20260509100518 68 0 0.0 0.9 0.00 0.00 0.00 92 1008.7
20260509100038 68 0 0.0 1.7 0.00 0.00 0.00 93 1008.2
20260509095521 68 132 0.0 1.7 0.00 0.00 0.00 93 1008.1
20260509095019 68 132 0.0 1.7 0.00 0.00 0.00 93 1008.0
20260509094537 68 0 0.0 2.6 0.00 0.00 0.00 93 1008.1
20260509094020 68 0 0.0 2.6 0.00 0.00 0.00 92 1007.8
20260509093518 68 0 0.0 3.5 0.00 0.00 0.00 92 1007.5
20260509093039 68 0 0.0 5.2 0.00 0.00 0.00 92 1007.5
20260509092518 68 0 0.9 5.2 0.00 0.00 0.00 92 1007.6
20260509092019 68 135 0.0 2.6 0.00 0.00 0.00 92 1007.6
20260509091537 68 0 0.0 2.6 0.00 0.00 0.00 92 1007.7
20260509091019 68 0 0.0 2.6 0.00 0.00 0.00 91 1007.9
20260509090521 68 55 0.0 2.6 0.00 0.00 0.00 91 1008.0
20260509090046 68 0 0.0 2.6 0.00 0.00 0.00 91 1008.1
20260509085520 68 127 0.0 2.6 0.00 0.03 0.00 91 1008.3
20260509085022 68 0 0.0 2.6 0.00 0.03 0.00 90 1008.4
20260509084540 69 158 0.0 3.5 0.00 0.03 0.00 90 1008.5
20260509084019 69 42 0.0 3.5 0.00 0.03 0.00 90 1008.8
20260509083521 69 0 0.0 1.7 0.00 0.03 0.00 90 1008.9
20260509083044 69 145 0.0 1.7 0.00 0.03 0.00 91 1009.0
20260509082520 68 0 0.0 0.9 0.00 0.03 0.00 91 1009.3
20260509082020 68 0 0.0 0.9 0.00 0.03 0.00 91 1009.5
20260509081543 68 0 0.0 1.7 0.00 0.03 0.00 91 1009.7
20260509081024 68 0 0.0 1.7 0.00 0.03 0.00 91 1009.8
20260509080521 68 134 0.0 1.7 0.00 0.03 0.00 91 1009.8
20260509080038 68 0 0.0 0.9 0.00 0.03 0.00 91 1010.1
20260509075524 68 0 0.0 0.9 0.00 0.03 0.00 91 1010.3
20260509075023 68 0 0.0 0.9 0.00 0.03 0.00 91 1010.4
20260509074548 68 0 0.0 0.0 0.00 0.03 0.00 91 1010.4
20260509074020 68 0 0.0 0.0 0.00 0.03 0.00 91 1010.4
20260509073519 68 0 0.0 0.0 0.00 0.03 0.00 91 1010.4
20260509073038 68 0 0.0 0.0 0.00 0.03 0.00 91 1010.3
20260509072530 68 0 0.0 0.0 0.00 0.03 0.00 91 1010.4
20260509072023 68 0 0.0 0.0 0.00 0.03 0.00 91 1010.4
20260509071538 68 0 0.0 0.0 0.00 0.03 0.00 91 1010.4
20260509071020 68 0 0.0 0.0 0.00 0.03 0.00 90 1010.4
20260509070521 68 0 0.0 0.0 0.00 0.03 0.00 90 1010.2
20260509070040 68 0 0.0 0.9 0.00 0.03 0.00 90 1010.1
20260509065520 68 0 0.0 1.7 0.00 0.03 0.00 90 1010.2
20260509065024 68 0 0.0 1.7 0.00 0.03 0.00 89 1010.2
20260509064539 68 0 0.0 1.7 0.00 0.03 0.00 89 1009.9
20260509064022 68 0 0.0 1.7 0.00 0.03 0.00 89 1009.9
20260509063524 68 117 0.0 2.6 0.00 0.03 0.00 89 1009.8
20260509063038 68 329 0.0 2.6 0.00 0.03 0.00 89 1009.9
20260509062525 68 188 0.0 1.7 0.00 0.03 0.00 89 1010.0
20260509062022 68 154 0.0 1.7 0.00 0.03 0.00 89 1010.3
20260509061539 68 118 0.0 1.7 0.00 0.03 0.00 89 1010.4
20260509061022 68 0 0.0 1.7 0.00 0.03 0.00 88 1010.3
20260509060520 68 148 0.0 1.7 0.00 0.03 0.00 88 1010.4
20260509060038 69 0 0.0 0.9 0.00 0.03 0.00 88 1010.6
20260509055525 69 0 0.0 0.9 0.00 0.03 0.00 88 1010.2
20260509055021 69 0 0.0 0.0 0.00 0.03 0.00 87 1010.3
20260509054545 69 0 0.0 0.0 0.00 0.03 0.00 87 1010.6
20260509054021 69 0 0.0 0.9 0.00 0.03 0.00 87 1010.5
20260509053523 69 0 0.0 0.9 0.00 0.03 0.00 87 1010.2
20260509053137 69 17 0.0 0.9 0.00 0.03 0.00 86 1010.3
20260509052520 69 0 0.0 0.9 0.00 0.03 0.00 86 1010.3
20260509052023 69 0 0.0 0.9 0.00 0.03 0.00 86 1010.4
20260509051547 69 0 0.0 0.0 0.00 0.03 0.00 86 1010.6
20260509051023 69 0 0.0 1.7 0.00 0.03 0.00 86 1010.7
20260509050525 69 0 0.0 2.6 0.00 0.03 0.00 86 1010.7
20260509050045 69 0 0.0 2.6 0.00 0.03 0.00 85 1010.3
20260509045522 69 9 0.0 3.5 0.00 0.03 0.03 85 1010.0
20260509045022 69 0 0.0 5.2 0.00 0.03 0.03 85 1009.6
20260509044537 70 191 0.9 5.2 0.00 0.03 0.03 85 1009.2
20260509044020 70 0 0.9 3.5 0.00 0.03 0.03 85 1009.1
20260509043520 70 153 0.9 3.5 0.00 0.03 0.03 84 1009.2
20260509043042 70 0 0.0 1.7 0.00 0.03 0.03 85 1009.6
20260509042524 70 0 0.0 1.7 0.00 0.03 0.03 85 1010.2
20260509042024 70 163 0.0 1.7 0.00 0.03 0.03 85 1010.3
20260509041539 70 168 0.0 0.9 0.00 0.03 0.03 85 1010.4
20260509041020 70 0 0.0 0.0 0.00 0.03 0.03 84 1010.7
20260509040524 70 0 0.0 0.0 0.00 0.03 0.03 84 1010.7
20260509040041 70 0 0.0 0.0 0.00 0.03 0.03 84 1010.6
20260509035521 70 0 0.0 0.0 0.00 0.03 0.03 84 1010.5
20260509035021 70 0 0.0 0.0 0.00 0.03 0.03 84 1010.5
20260509034539 70 0 0.0 0.0 0.00 0.03 0.03 84 1010.2
20260509034022 70 0 0.0 0.0 0.00 0.03 0.03 84 1010.2
20260509033522 70 0 0.0 0.0 0.00 0.03 0.03 83 1010.2
20260509033044 70 0 0.0 0.0 0.00 0.03 0.03 83 1010.2
20260509032521 70 0 0.0 0.0 0.00 0.03 0.03 83 1009.9
20260509032021 70 0 0.0 0.0 0.00 0.03 0.03 83 1009.8
20260509031538 70 0 0.0 0.0 0.00 0.03 0.03 83 1009.5
20260509031020 70 0 0.0 0.0 0.00 0.03 0.03 83 1009.7
20260509030520 70 0 0.0 0.0 0.00 0.03 0.03 83 1009.6
20260509030042 70 0 0.0 0.0 0.00 0.03 0.03 83 1009.7
20260509025521 70 0 0.0 0.0 0.00 0.03 0.03 83 1009.7
20260509025019 70 0 0.0 0.0 0.00 0.03 0.03 83 1009.7
20260509024543 70 0 0.0 0.0 0.00 0.03 0.03 82 1009.6
20260509024019 70 0 0.0 0.0 0.00 0.03 0.03 82 1009.4
20260509023521 70 0 0.0 0.0 0.00 0.03 0.03 82 1009.3
20260509023045 70 0 0.0 0.0 0.00 0.03 0.03 82 1009.3
20260509022519 70 0 0.0 0.0 0.00 0.03 0.03 82 1009.3
20260509022021 70 0 0.0 0.0 0.00 0.03 0.03 82 1009.3
20260509021537 70 0 0.0 0.0 0.00 0.03 0.03 81 1009.3
20260509021018 70 0 0.0 0.0 0.00 0.03 0.03 81 1009.1
20260509020520 70 0 0.0 0.0 0.00 0.03 0.03 80 1009.0
20260509020044 71 0 0.0 0.0 0.00 0.03 0.03 80 1009.1
20260509015518 71 0 0.0 0.0 0.00 0.03 0.03 80 1009.1
20260509015019 71 0 0.0 0.0 0.00 0.03 0.03 80 1009.0
20260509014539 71 0 0.0 0.0 0.00 0.03 0.03 80 1008.9
20260509014020 71 0 0.0 0.0 0.00 0.03 0.03 80 1008.8
20260509013521 71 0 0.0 0.0 0.00 0.03 0.03 79 1008.8
20260509013057 71 0 0.0 0.0 0.00 0.03 0.03 79 1008.6
20260509012519 71 0 0.0 0.0 0.00 0.03 0.03 78 1008.7
20260509012025 71 0 0.0 0.0 0.00 0.03 0.03 77 1008.7
20260509011539 71 0 0.0 0.0 0.00 0.03 0.03 77 1008.5
20260509011020 72 0 0.0 0.0 0.00 0.03 0.03 77 1008.5
20260509010518 72 0 0.0 0.0 0.00 0.03 0.03 76 1008.5
20260509010037 72 0 0.0 1.7 0.00 0.03 0.03 76 1008.3
20260509005521 72 0 0.0 1.7 0.00 0.03 0.03 75 1008.2
20260509005021 72 0 0.0 1.7 0.00 0.03 0.03 75 1008.2
20260509004542 72 0 0.0 1.7 0.00 0.03 0.03 74 1008.3
20260509004020 73 0 0.0 1.7 0.00 0.03 0.03 73 1008.3
20260509003520 73 0 0.0 0.9 0.00 0.03 0.03 73 1008.3
20260509003055 73 0 0.0 0.9 0.00 0.03 0.03 74 1008.2
20260509002518 73 0 0.0 1.7 0.00 0.03 0.03 71 1008.2
20260509002018 74 149 0.0 1.7 0.00 0.03 0.03 71 1008.3
20260509001537 74 0 0.0 2.6 0.00 0.03 0.03 71 1008.2
20260509001021 74 215 0.0 2.6 0.00 0.03 0.03 69 1008.2
20260509000526 74 166 0.0 3.5 0.00 0.03 0.03 70 1008.4
20260509000039 74 0 0.0 3.5 0.00 0.03 0.03 69 1008.5
20260508235522 75 0 0.9 2.6 0.00 0.03 0.03 69 1008.5
20260508235023 75 144 0.0 2.6 0.00 0.03 0.03 68 1008.6
20260508234541 75 0 0.0 2.6 0.00 0.03 0.03 69 1008.6
20260508234020 75 0 0.9 2.6 0.00 0.03 0.03 67 1008.7
20260508233523 76 134 0.0 1.7 0.00 0.03 0.03 68 1008.6
20260508233037 76 0 0.0 1.7 0.00 0.03 0.03 68 1008.6
20260508232522 76 150 0.0 2.6 0.00 0.03 0.03 67 1008.7
20260508232022 76 276 0.0 2.6 0.00 0.03 0.03 67 1008.7
20260508231541 76 264 0.0 2.6 0.00 0.03 0.03 68 1008.8
20260508231022 76 177 0.9 2.6 0.00 0.03 0.03 67 1008.8
20260508230520 76 0 0.0 2.6 0.00 0.03 0.03 67 1008.9
20260508230044 76 161 0.0 2.6 0.00 0.03 0.03 67 1008.8
20260508225526 76 210 0.9 2.6 0.00 0.03 0.03 67 1008.7
20260508225021 77 259 0.9 3.5 0.00 0.03 0.03 65 1008.8
20260508224545 77 144 0.9 3.5 0.00 0.03 0.03 65 1008.7
20260508224020 77 250 1.7 3.5 0.00 0.03 0.03 66 1008.7
20260508223524 77 240 0.9 3.5 0.00 0.03 0.03 67 1008.6
20260508223039 77 60 0.0 2.6 0.00 0.03 0.03 66 1008.5
20260508222521 77 89 0.9 3.5 0.00 0.03 0.03 66 1008.3
20260508222022 77 0 0.9 3.5 0.00 0.03 0.03 65 1008.2
20260508221540 77 160 0.9 3.5 0.00 0.03 0.03 65 1008.0
20260508221022 77 312 0.9 3.5 0.00 0.03 0.03 66 1008.0
20260508220526 77 123 0.9 3.5 0.00 0.03 0.03 66 1008.0
20260508220037 76 181 0.9 3.5 0.00 0.03 0.03 65 1007.6
20260508215521 75 122 0.9 3.5 0.00 0.03 0.03 68 1007.6
20260508215025 74 107 0.9 3.5 0.00 0.03 0.03 71 1007.8
20260508214536 74 104 0.0 1.7 0.00 0.03 0.03 72 1008.5
20260508214022 74 112 0.0 1.7 0.00 0.03 0.03 71 1009.1
20260508213522 74 0 0.0 1.7 0.00 0.03 0.03 72 1009.2
20260508213037 74 0 0.0 0.9 0.00 0.03 0.03 70 1009.4
20260508212524 74 0 0.0 0.9 0.00 0.03 0.03 70 1009.4
20260508212022 74 0 0.0 0.0 0.00 0.03 0.03 70 1009.4
20260508211543 74 0 0.0 0.9 0.00 0.03 0.03 68 1009.7
20260508211023 75 0 0.0 0.9 0.00 0.03 0.03 68 1009.6
20260508210520 75 0 0.0 0.9 0.00 0.03 0.03 68 1009.9
20260508210043 75 0 0.0 0.9 0.00 0.03 0.03 67 1010.0
20260508205522 75 0 0.0 0.9 0.00 0.03 0.03 67 1010.1
20260508205024 75 0 0.0 0.9 0.00 0.03 0.03 66 1010.1
20260508204538 76 0 0.0 1.7 0.00 0.03 0.03 65 1010.1
20260508204021 76 0 0.0 1.7 0.00 0.03 0.03 63 1010.1
20260508203519 76 0 0.0 2.6 0.00 0.03 0.03 64 1010.1
20260508203046 76 0 0.0 2.6 0.00 0.03 0.03 63 1010.0
20260508202524 77 0 0.0 1.7 0.00 0.03 0.03 61 1010.0
20260508202020 77 0 0.0 2.6 0.00 0.03 0.03 61 1010.1
20260508201543 79 282 0.0 2.6 0.00 0.03 0.03 59 1010.0
20260508201022 79 167 0.0 2.6 0.00 0.03 0.03 59 1010.1
20260508200519 80 271 0.0 2.6 0.00 0.03 0.03 60 1010.2
20260508200038 80 259 0.9 3.5 0.00 0.03 0.03 57 1010.1
20260508195524 79 0 0.0 3.5 0.00 0.03 0.03 60 1010.2
20260508195020 79 238 0.9 3.5 0.00 0.03 0.03 60 1010.3
20260508194540 79 8 0.9 5.2 0.00 0.03 0.03 61 1010.4
20260508194022 79 65 1.7 5.2 0.00 0.03 0.03 60 1010.4
20260508193522 78 174 0.9 2.6 0.00 0.03 0.03 60 1010.4
20260508193043 78 110 0.9 2.6 0.00 0.03 0.03 60 1010.7
20260508192523 79 134 0.9 4.3 0.00 0.03 0.03 60 1010.8
20260508192022 79 189 0.9 4.3 0.00 0.03 0.03 59 1010.8
20260508191541 79 232 0.9 4.3 0.00 0.03 0.03 60 1010.8
20260508191022 79 187 0.9 5.2 0.00 0.03 0.03 60 1010.8
20260508190523 78 50 0.9 6.1 0.00 0.03 0.03 61 1010.7
20260508190043 78 70 0.9 6.1 0.00 0.03 0.03 61 1010.8
20260508185520 78 196 0.9 6.1 0.00 0.03 0.03 60 1011.1
20260508185019 78 273 0.9 3.5 0.00 0.03 0.03 59 1011.1
20260508184541 78 0 0.9 3.5 0.00 0.03 0.03 60 1011.0
20260508184019 77 69 0.9 3.5 0.00 0.03 0.03 61 1011.0
20260508183522 78 267 0.9 3.5 0.00 0.03 0.03 58 1011.1
20260508183041 78 202 0.0 3.5 0.00 0.03 0.03 61 1011.2
20260508182523 77 107 0.9 3.5 0.00 0.03 0.03 61 1011.4
20260508182022 77 131 0.9 3.5 0.00 0.03 0.03 59 1011.5
20260508181543 77 124 0.0 3.5 0.00 0.03 0.03 59 1011.5
20260508181023 77 246 0.9 3.5 0.00 0.03 0.03 61 1011.6
20260508180522 77 139 0.9 2.6 0.00 0.03 0.03 60 1011.8
20260508180039 76 91 0.0 3.5 0.00 0.03 0.03 61 1011.9
20260508175525 76 96 0.9 4.3 0.00 0.03 0.03 60 1012.0
20260508175022 76 101 0.9 4.3 0.00 0.03 0.03 61 1012.2
20260508174556 75 215 0.9 3.5 0.00 0.03 0.03 62 1012.2
20260508174022 75 88 0.9 3.5 0.00 0.03 0.03 64 1012.2
20260508173522 74 84 0.0 2.6 0.00 0.03 0.03 68 1012.3
20260508173035 73 0 0.0 2.6 0.00 0.03 0.03 66 1012.5
20260508172519 72 0 0.0 3.5 0.00 0.03 0.03 67 1012.6
20260508172019 72 0 0.0 3.5 0.00 0.03 0.03 66 1012.8
20260508171542 72 121 0.9 3.5 0.00 0.03 0.03 65 1012.9
20260508171022 72 0 0.0 2.6 0.00 0.03 0.03 67 1012.9
20260508170522 72 0 0.0 2.6 0.00 0.03 0.03 67 1013.0
20260508170040 71 111 0.0 2.6 0.00 0.03 0.03 67 1013.2
20260508165522 71 267 0.9 3.5 0.00 0.03 0.03 68 1013.3
20260508165022 71 0 0.9 3.5 0.00 0.03 0.03 68 1013.4
20260508164545 71 277 0.9 3.5 0.00 0.03 0.03 67 1013.5
20260508164022 71 167 0.9 3.5 0.00 0.03 0.03 68 1013.6
20260508163520 70 202 0.9 3.5 0.00 0.03 0.03 68 1013.8
20260508163105 71 231 0.0 2.6 0.00 0.03 0.03 67 1013.9
20260508162522 71 281 0.9 3.5 0.00 0.03 0.03 66 1014.0
20260508162021 71 32 0.0 3.5 0.00 0.03 0.03 67 1014.0
20260508161539 71 181 0.0 2.6 0.00 0.03 0.03 67 1013.9
20260508161023 71 17 0.9 3.5 0.00 0.03 0.03 66 1014.0
20260508160523 72 190 0.9 3.5 0.00 0.03 0.03 66 1013.8
20260508160037 72 182 0.0 4.3 0.00 0.03 0.03 66 1013.9
20260508155520 72 220 0.9 4.3 0.00 0.03 0.03 68 1013.9
20260508155019 72 0 0.9 3.5 0.00 0.03 0.03 67 1014.0
20260508154537 72 133 0.9 7.0 0.00 0.03 0.03 67 1014.2
20260508154020 72 0 0.9 7.0 0.00 0.03 0.03 65 1014.2
20260508153522 73 163 1.7 7.0 0.00 0.03 0.03 64 1014.1
20260508153040 73 115 0.9 3.5 0.00 0.03 0.03 65 1014.2
20260508152522 72 256 0.9 5.2 0.00 0.03 0.03 67 1014.1
20260508152022 72 184 0.9 5.2 0.00 0.03 0.03 66 1014.0
20260508151542 71 102 0.0 3.5 0.00 0.03 0.03 68 1014.0
20260508151025 72 117 0.9 3.5 0.00 0.03 0.03 67 1014.1
20260508150522 72 155 0.9 3.5 0.00 0.03 0.03 67 1014.2
20260508150037 71 247 0.0 3.5 0.00 0.03 0.03 69 1014.3
20260508145522 71 199 0.9 3.5 0.00 0.03 0.03 68 1014.1
20260508145020 70 175 0.9 2.6 0.00 0.03 0.03 68 1014.0
20260508144539 70 0 0.0 3.5 0.00 0.03 0.03 67 1014.2
20260508144020 70 0 0.9 3.5 0.00 0.03 0.03 69 1014.3
20260508143521 69 0 0.0 2.6 0.00 0.03 0.03 73 1014.3
20260508143048 68 87 0.0 2.6 0.00 0.03 0.03 75 1014.4
20260508142520 68 165 0.9 7.0 0.00 0.03 0.03 79 1014.5
20260508142020 67 0 0.0 7.0 0.00 0.03 0.03 78 1014.5
20260508141540 66 161 0.9 7.0 0.00 0.03 0.03 80 1014.4
20260508141021 65 0 0.0 3.5 0.00 0.03 0.03 84 1014.4
20260508140522 64 239 0.0 3.5 0.00 0.03 0.03 87 1014.5
20260508140041 63 0 0.0 3.5 0.00 0.03 0.03 89 1014.3
20260508135520 63 0 0.0 3.5 0.00 0.03 0.03 90 1014.3
20260508135021 62 172 0.0 1.7 0.00 0.03 0.03 92 1014.5
20260508134540 61 147 0.0 1.7 0.00 0.03 0.03 93 1014.4
20260508134020 61 0 0.0 1.7 0.00 0.03 0.03 93 1014.3
20260508133523 60 0 0.0 1.7 0.00 0.03 0.03 93 1014.5
20260508133044 60 0 0.0 0.9 0.00 0.03 0.03 94 1014.5
20260508132521 60 0 0.0 0.9 0.00 0.03 0.03 94 1014.6
20260508132020 59 0 0.0 0.9 0.00 0.03 0.03 94 1014.6
20260508131545 59 0 0.0 0.0 0.00 0.03 0.03 93 1014.7
20260508131020 59 0 0.0 0.0 0.00 0.03 0.03 94 1014.9
20260508130522 59 0 0.0 0.9 0.00 0.03 0.03 94 1014.9
20260508130054 59 0 0.0 1.7 0.00 0.03 0.03 95 1014.7
20260508125523 58 0 0.0 1.7 0.00 0.03 0.03 95 1014.9
20260508125019 58 0 0.0 1.7 0.00 0.03 0.03 94 1014.8
20260508124542 58 0 0.0 0.9 0.00 0.03 0.03 94 1014.8
20260508124020 58 0 0.0 1.7 0.00 0.03 0.03 94 1015.0
20260508123522 58 0 0.0 1.7 0.00 0.03 0.03 94 1014.8
20260508123039 58 117 0.0 1.7 0.00 0.03 0.03 94 1014.8
20260508122521 58 0 0.0 1.7 0.00 0.03 0.03 94 1014.7
20260508122019 57 0 0.0 1.7 0.00 0.03 0.03 94 1014.6
20260508121537 57 0 0.0 1.7 0.00 0.03 0.03 94 1014.7
20260508121021 57 0 0.0 0.9 0.00 0.03 0.03 94 1014.7
20260508120519 57 0 0.0 0.9 0.00 0.03 0.03 94 1014.6
20260508120037 57 127 0.0 0.9 0.00 0.03 0.03 94 1014.5
20260508115519 57 0 0.0 1.7 0.00 0.03 0.03 94 1014.5
20260508115059 57 0 0.0 1.7 0.00 0.03 0.03 94 1014.6
20260508114541 57 0 0.0 1.7 0.00 0.03 0.03 94 1014.8
20260508114024 57 165 0.0 1.7 0.00 0.03 0.03 94 1015.0
20260508113523 57 148 0.0 1.7 0.00 0.03 0.03 94 1015.3
20260508113048 57 0 0.0 1.7 0.00 0.03 0.03 94 1015.7
20260508112521 57 0 0.0 2.6 0.00 0.03 0.03 94 1015.6